Weather History for Monroe, LA

Change the Weather History Date:

Friday, November 9, 2012

  Actual Average Record
Temperature  
Mean Temperature 58 °F 59 °F  
Max Temperature 74 °F 71 °F 87 °F (1934)
Min Temperature 42 °F 46 °F 25 °F (1961)
Degree Days  
Heating Degree Days 7 7  
Month to date heating degree days 60 58  
Since 1 July heating degree days 169 148  
Cooling Degree Days 0 1  
Month to date cooling degree days 7 11  
Year to date cooling degree days 2767 2495  
Growing Degree Days 8 (Base 50)    
Moisture  
Dew Point 44 °F    
Average Humidity 60    
Maximum Humidity 92    
Minimum Humidity 27    
Precipitation  
Precipitation 0.00 in 0.15 in 2.20 in (1952)
Month to date precipitation 0.67 1.33  
Year to date precipitation 50.78 45.22  
Snow  
Snow 0.00 in - - ()
Month to date snowfall 0.0  
Since 1 July snowfall 0.0  
Since 1 September snowfall 0.0  
Snow Depth 0.00 in    
Sea Level Pressure  
Sea Level Pressure 30.18 in    
Wind  
Wind Speed 4 mph (SSE)    
Max Wind Speed 13 mph    
Max Gust Speed 18 mph    
Visibility 10 miles    
Events      
T = Trace of Precipitation, MM = Missing Value Source: NWS Daily Summary

Daily Weather History Graph

Daily Weather History Graph

Search for Another Location

Airport:

Trip Planner

Search our weather history database for the weather conditions in past years. The results will help you decide how hot, cold, wet, or windy it might be!

Date:

Astronomy

Nov. 09, 2012 Rise Set
Actual Time 6:32 AM CST 5:10 PM CST
Civil Twilight 6:07 AM CST 5:36 PM CST
Nautical Twilight 5:37 AM CST 6:05 PM CST
Astronomical Twilight 5:08 AM CST 6:34 PM CST
Moon 1:47 AM CST (11/9) 2:10 PM CST (11/9)
Length of Visible Light 11h 29m
Length of Day
10h 37m
Waning Crescent, 23% of the Moon is Illuminated
Nov 9
Waning Crescent
Nov 13
New
Nov 20
First Quarter
Nov 28
Full
Dec 6
Last Quarter

Hourly Weather History & Observations

Time (CST) Temp. Windchill Dew Point Humidity Pressure Visibility Wind Dir Wind Speed Gust Speed Precip Events Conditions
12:53 AM 43.0 °F - 39.0 °F 86% 30.18 in 10.0 mi Calm Calm - N/A   Clear
1:53 AM 45.0 °F - 41.0 °F 86% 30.18 in 10.0 mi Calm Calm - N/A   Clear
2:53 AM 48.0 °F - 42.1 °F 80% 30.18 in 10.0 mi SE 3.5 mph - N/A   Clear
3:53 AM 44.1 °F - 39.9 °F 85% 30.18 in 10.0 mi Calm Calm - N/A   Clear
4:53 AM 44.1 °F - 41.0 °F 89% 30.19 in 10.0 mi Calm Calm - N/A   Clear
5:53 AM 42.1 °F - 39.0 °F 89% 30.20 in 10.0 mi Calm Calm - N/A   Clear
6:53 AM 46.0 °F 43.9 °F 41.0 °F 83% 30.23 in 10.0 mi South 4.6 mph - N/A   Clear
7:53 AM 48.9 °F - 43.0 °F 80% 30.24 in 10.0 mi South 4.6 mph - N/A   Clear
8:53 AM 54.0 °F - 44.1 °F 69% 30.25 in 10.0 mi South 8.1 mph - N/A   Clear
9:53 AM 60.1 °F - 44.1 °F 55% 30.25 in 10.0 mi SSE 11.5 mph - N/A   Clear
10:53 AM 64.9 °F - 44.1 °F 47% 30.23 in 10.0 mi South 4.6 mph - N/A   Scattered Clouds
11:53 AM 69.1 °F - 42.1 °F 38% 30.20 in 10.0 mi South 5.8 mph - N/A   Clear
12:53 PM 71.1 °F - 43.0 °F 36% 30.17 in 10.0 mi SSE 6.9 mph - N/A   Clear
1:53 PM 73.0 °F - 37.9 °F 28% 30.14 in 10.0 mi SSE 6.9 mph 18.4 mph N/A   Clear
2:53 PM 73.0 °F - 42.1 °F 33% 30.13 in 10.0 mi Variable 4.6 mph - N/A   Clear
3:53 PM 73.0 °F - 43.0 °F 34% 30.12 in 10.0 mi SSE 4.6 mph - N/A   Clear
4:53 PM 69.1 °F - 44.1 °F 40% 30.12 in 10.0 mi SE 4.6 mph - N/A   Clear
5:53 PM 63.0 °F - 46.0 °F 54% 30.13 in 10.0 mi ESE 3.5 mph - N/A   Clear
6:53 PM 57.0 °F - 48.0 °F 72% 30.14 in 10.0 mi SE 4.6 mph - N/A   Clear
7:53 PM 62.1 °F - 46.0 °F 56% 30.14 in 10.0 mi SSE 5.8 mph - N/A   Clear
8:53 PM 59.0 °F - 46.9 °F 64% 30.15 in 10.0 mi SSE 5.8 mph - N/A   Clear
9:53 PM 57.9 °F - 48.0 °F 70% 30.16 in 10.0 mi SSE 4.6 mph - N/A   Clear
10:53 PM 59.0 °F - 50.0 °F 72% 30.16 in 10.0 mi SSE 4.6 mph - N/A   Clear
11:53 PM 55.9 °F - 50.0 °F 80% 30.17 in 10.0 mi South 4.6 mph - N/A   Clear